Weather History for 78073 - November, 2012

Change the Weather History Date:

Saturday, November 24, 2012

  Actual Average Record
Temperature  
Mean Temperature 74 °F -  
Max Temperature 78 °F 80 °F - ()
Min Temperature 69 °F 65 °F - ()
Cooling Degree Days 8    
Growing Degree Days 24 (Base 50)    
Moisture  
Dew Point 60 °F    
Average Humidity 61    
Maximum Humidity 78    
Minimum Humidity 42    
Precipitation  
Precipitation 0.00 in 0.07 in - ()
Sea Level Pressure  
Sea Level Pressure 30.03 in    
Wind  
Wind Speed 6 mph ()    
Max Wind Speed 14 mph    
Max Gust Speed -    
Visibility 6.9 miles    
Events      
T = Trace of Precipitation, MM = Missing Value Source: Averaged Metar Reports

Daily Weather History Graph

Daily Weather History Graph

Search for Another Location

Airport or City:

Trip Planner

Search our weather history database for the weather conditions in past years. The results will help you decide how hot, cold, wet, or windy it might be!

Date:

Astronomy

Nov. 24, 2012 Rise Set
Actual Time 6:33 AM EST 5:19 PM EST
Civil Twilight 6:08 AM EST 5:44 PM EST
Nautical Twilight 5:40 AM EST 6:12 PM EST
Astronomical Twilight 5:13 AM EST 6:40 PM EST
Moon 2:48 PM EST (11/24) 3:05 AM EST (11/24)
Length of Visible Light 11h 35m
Length of Day
10h 46m
Waxing Gibbous, 87% of the Moon is Illuminated
Nov 24
Waxing Gibbous
Nov 28
Full
Dec 6
Last Quarter
Dec 13
New
Dec 20
First Quarter

Hourly Weather History & Observations

Time (EST) Temp. Dew Point Humidity Pressure Visibility Wind Dir Wind Speed Gust Speed Precip Events Conditions
12:00 AM 71.6 °F 62.6 °F 73% 30.04 in 6.2 mi WNW 5.8 mph - N/A   Scattered Clouds
1:00 AM 72 °F 64 °F 68% 30.03 in 9 mi NW 4.6 mph - -   Scattered Clouds
1:00 AM 71.6 °F 64.4 °F 78% 30.03 in 6.2 mi NW 4.6 mph - N/A   Partly Cloudy
2:00 AM 71.6 °F 62.6 °F 73% 30.02 in 6.2 mi WNW 3.5 mph - N/A   Partly Cloudy
3:00 AM 71.6 °F 62.6 °F 73% 30.02 in 6.2 mi NW 4.6 mph - N/A   Scattered Clouds
4:00 AM 73 °F 65 °F 68% 30.02 in 9 mi NW 4.6 mph - -   Partly Cloudy
4:00 AM 73.4 °F 64.4 °F 73% 30.01 in 6.2 mi NW 4.6 mph - N/A   Scattered Clouds
5:00 AM 71.6 °F 60.8 °F 69% 30.01 in 6.2 mi WNW 4.6 mph - N/A   Scattered Clouds
6:00 AM 71.6 °F 60.8 °F 69% 30.03 in 6.2 mi NW 10.4 mph - N/A   Partly Cloudy
7:00 AM 72 °F 59 °F 54% 30.05 in 9 mi West 9.2 mph - -   Scattered Clouds
7:00 AM 71.6 °F 59.0 °F 64% 30.04 in 6.2 mi West 9.2 mph - N/A   Partly Cloudy
8:00 AM 73.4 °F 57.2 °F 57% 30.06 in 6.2 mi WNW 11.5 mph - N/A   Scattered Clouds
9:00 AM 73.4 °F 57.2 °F 57% 30.07 in 6.2 mi West 10.4 mph - N/A   Scattered Clouds
10:00 AM 77 °F 58 °F 42% 30.08 in 9 mi WNW 9.2 mph - -   Scattered Clouds
10:00 AM 77.0 °F 59.0 °F 54% 30.08 in 6.2 mi WNW 9.2 mph - N/A   Partly Cloudy
11:00 AM 75.2 °F 57.2 °F 53% 30.07 in 6.2 mi WNW 11.5 mph - N/A   Scattered Clouds
12:00 PM 75.2 °F 59.0 °F 57% 30.04 in 6.2 mi WNW 11.5 mph - N/A   Scattered Clouds
1:00 PM 78 °F 60 °F 44% 30.02 in 9 mi WNW 11.5 mph - -   Partly Cloudy
1:00 PM 75.2 °F 59.0 °F 57% 30.00 in 6.2 mi WNW 11.5 mph - N/A   Scattered Clouds
2:00 PM 75.2 °F 59.0 °F 57% 30.00 in 6.2 mi WNW 11.5 mph - N/A   Scattered Clouds
3:00 PM 75.2 °F 59.0 °F 57% 29.99 in 6.2 mi WNW 13.8 mph - N/A   Scattered Clouds
4:00 PM 77 °F 59 °F 44% 30.01 in 9 mi WNW 11.5 mph - -   Scattered Clouds
4:00 PM 77.0 °F 59.0 °F 54% 30.00 in 6.2 mi WNW 13.8 mph - N/A   Scattered Clouds
5:00 PM 73.4 °F 59.0 °F 61% 30.00 in 6.2 mi West 6.9 mph - N/A   Partly Cloudy
6:00 PM 71.6 °F 57.2 °F 60% 30.01 in 6.2 mi West 4.6 mph - N/A   Scattered Clouds
7:00 PM 71 °F 58 °F 55% 30.02 in 9 mi WNW 4.6 mph - -   Scattered Clouds
7:00 PM 71.6 °F 59.0 °F 64% 30.02 in 6.2 mi WNW 4.6 mph - N/A   Scattered Clouds
8:00 PM 69.8 °F 60.8 °F 73% 30.03 in 6.2 mi West 2.3 mph - N/A   Scattered Clouds
9:00 PM 71.6 °F 57.2 °F 60% 30.04 in 6.2 mi WNW 5.8 mph - N/A   Scattered Clouds
10:00 PM 70 °F 57 °F 55% 30.06 in 9 mi West 2.3 mph - -   Scattered Clouds
10:00 PM 69.8 °F 57.2 °F 64% 30.06 in 6.2 mi West 2.3 mph - N/A   Partly Cloudy
11:00 PM 69.8 °F 57.2 °F 64% 30.07 in 6.2 mi West 3.5 mph - N/A   Partly Cloudy